Wind_Speed
3 4 4 4 3 3 3 4 5 5 5 4 4 4 5 5 6 6 7 7 7 7 8 8 8 8 7 7 7 7 7 8 8 7 7 6 6 5 5 5 6 7 7
5 5 6 5 4 3 3 3 3 3 3 3 3 3 4 4 5 6 6 7 7 7 8 8 8 7 7 6 6 6 6 6 7 6 6 5 5 5 4 4 5 5 7
5 5 6 5 4 3 3 2 2 1 2 2 2 3 4 4 5 6 7 7 7 7 8 8 8 7 7 6 6 5 5 5 5 5 5 4 4 4 4 4 4 5 6
6 6 6 5 4 4 3 2 2 1 0 1 2 3 4 5 6 7 8 8 8 8 8 8 8 8 7 6 6 6 5 4 4 3 3 3 3 3 3 3 4 5 6
7 7 7 6 5 4 4 3 2 1 1 2 3 4 6 6 7 8 9 9 9 10 10 9 9 8 8 7 7 6 5 4 3 3 2 2 1 1 2 3 3 5 6
8 9 7 6 5 4 4 3 3 2 2 3 4 5 7 8 9 10 11 11 11 11 11 11 10 10 9 9 8 7 5 5 4 3 2 1 1 0 1 2 3 4 5
10 9 8 7 6 5 4 4 4 4 4 4 5 7 8 9 11 11 12 13 13 13 13 12 12 12 11 10 10 8 7 5 5 4 3 3 2 2 2 2 3 4 5
12 10 9 7 7 6 5 5 5 5 6 7 7 9 10 12 12 13 14 14 15 15 16 15 14 14 13 12 11 10 9 8 7 6 5 5 4 4 4 4 4 5 5
13 11 9 8 7 6 6 6 6 7 8 9 10 11 12 13 14 15 15 16 17 17 17 17 16 16 15 14 13 12 10 9 9 9 8 7 7 6 6 6 7 7 7
14 13 10 9 8 7 6 7 7 8 10 11 11 12 13 14 15 16 16 17 17 18 18 18 17 17 16 15 13 13 12 11 11 10 10 9 9 9 9 8 9 9 9
14 13 11 10 8 7 7 8 9 10 11 12 13 13 14 15 15 16 17 18 18 18 18 18 18 17 16 15 14 13 12 12 12 12 12 11 11 10 10 10 11 11 11
15 14 12 10 8 8 8 9 10 10 11 12 13 13 14 15 15 16 17 17 17 18 17 17 17 17 16 15 14 13 13 13 14 14 14 13 13 13 12 12 13 13 13
16 15 12 10 9 9 9 10 10 11 11 12 13 13 14 14 15 16 16 15 16 16 16 17 17 17 16 16 15 15 14 14 15 16 16 15 15 15 15 14 14 15 16
16 16 14 11 10 10 10 11 11 11 11 12 12 13 13 14 14 15 15 14 15 15 15 15 15 16 16 16 16 16 15 15 16 16 17 16 17 17 16 16 16 17 17
17 16 14 11 11 10 10 10 10 10 11 11 12 12 13 13 13 14 14 14 14 14 15 15 15 15 15 16 16 16 16 16 15 16 16 17 17 17 18 18 17 18 18
18 16 15 12 10 8 8 8 9 10 10 11 12 12 12 12 12 13 13 14 14 14 14 14 14 14 14 14 15 16 15 15 15 15 16 16 17 17 17 19 20 19 20
16 14 13 11 9 7 8 8 8 9 9 11 11 11 11 11 12 12 12 13 13 14 14 14 15 15 14 15 15 15 15 15 15 15 15 15 16 17 18 19 20 20 21
14 13 12 10 8 7 6 6 7 8 9 9 10 10 10 11 11 11 12 12 13 13 13 13 14 14 14 14 14 14 14 15 15 15 15 16 16 17 17 18 19 20 21
14 13 11 9 8 7 6 6 7 7 8 8 9 9 10 10 10 11 11 11 11 12 12 12 12 13 13 14 14 14 14 14 15 15 16 17 17 17 18 18 19 20 20
13 12 10 9 7 6 5 5 5 6 7 7 8 8 9 9 10 10 11 11 11 11 12 12 12 12 12 13 13 14 14 14 15 15 16 17 18 18 18 19 19 20 21
12 11 10 8 7 6 5 5 5 5 6 6 7 7 8 8 9 10 10 10 11 11 11 11 11 11 12 12 13 13 13 13 14 14 15 16 17 18 19 20 21 21 22
11 10 9 8 7 6 5 5 5 5 5 6 6 7 7 8 9 9 9 10 10 10 11 11 11 11 12 13 13 13 13 13 13 14 15 16 17 18 19 20 21 22 24
10 9 9 8 7 6 5 5 4 4 5 5 5 6 7 8 8 9 9 10 10 10 11 11 12 12 13 13 14 14 14 14 14 14 15 16 17 18 19 21 22 23 24
10 9 9 8 7 6 6 5 4 4 4 4 5 5 6 7 8 8 9 10 10 10 11 11 12 13 14 15 15 16 16 16 16 16 16 17 18 19 20 21 22 24 25
10 9 8 8 7 6 7 6 4 4 4 4 4 5 6 7 8 8 9 10 10 11 12 13 14 15 16 16 16 17 18 18 19 19 19 19 20 20 21 22 23 25 26
9 9 8 7 7 7 6 6 5 5 4 4 4 5 6 7 8 9 10 11 11 12 13 14 15 17 18 18 18 18 19 19 20 20 21 21 22 22 23 24 25 26 27
Wind_Direction
224 229 238 229 209 177 136 116 105 94 84 71 59 47 35 23 16 12 10 8 6 5 4 5 8 10 13 17 23 29 32 36 42 47 55 61 67 78 89 103 113 121 122
226 227 231 227 217 198 162 133 115 98 81 63 47 35 23 12 5 359 354 353 353 352 353 354 355 358 359 1 7 16 22 29 38 44 52 60 66 79 92 112 125 133 132
235 232 230 228 220 209 190 165 145 113 77 42 19 5 357 352 346 343 340 339 339 340 341 342 344 344 346 347 349 353 2 12 27 37 45 53 66 82 99 116 133 138 140
235 236 232 226 226 222 212 198 190 185 329 339 336 336 335 336 334 330 330 331 330 329 331 331 332 333 333 333 332 334 341 347 359 17 33 47 61 84 110 126 136 144 149
232 236 232 226 223 220 218 216 218 230 281 315 320 322 323 324 323 322 322 324 325 323 322 321 321 323 322 321 319 320 322 322 331 343 3 22 39 89 127 136 144 151 155
231 231 227 223 222 220 219 223 236 254 279 299 309 311 313 314 315 315 315 316 319 319 318 315 313 314 314 312 311 312 310 302 302 307 310 309 315 191 159 160 163 170 170
225 224 220 221 223 224 228 236 250 268 279 289 297 302 305 307 309 309 308 310 311 311 310 310 309 308 307 304 301 301 299 294 287 284 278 270 267 253 230 207 195 191 188
228 226 218 219 225 229 239 248 258 269 277 284 291 296 299 301 303 304 303 303 304 304 302 301 302 301 300 298 296 292 287 284 280 276 271 264 257 254 249 233 219 209 203
225 227 222 220 227 234 241 252 264 271 276 282 287 292 296 299 300 299 299 298 299 299 299 296 295 296 294 292 290 285 278 275 274 271 268 264 262 255 252 241 229 222 214
222 222 222 222 227 237 250 260 269 276 279 284 287 292 294 296 296 294 294 293 296 295 295 292 292 293 291 287 283 279 273 269 268 268 267 263 261 258 251 244 236 228 221
217 218 220 224 232 244 256 267 271 276 281 285 287 289 293 294 293 293 293 292 291 292 291 289 291 294 291 286 281 276 270 267 265 266 265 262 260 258 254 245 239 231 225
217 217 219 225 235 249 262 270 273 278 282 284 286 289 291 293 294 294 296 292 289 289 289 290 293 294 291 286 281 275 272 269 265 266 265 260 259 257 253 248 240 235 229
214 216 218 226 238 252 262 268 273 277 280 283 286 289 290 291 294 295 296 293 290 290 289 291 292 292 287 284 281 276 272 269 267 268 265 260 258 258 253 250 243 238 232
213 214 216 223 235 250 258 265 271 279 281 282 287 290 290 292 295 296 295 293 293 295 295 296 295 293 288 284 282 279 275 272 270 268 264 261 258 256 254 253 248 241 235
207 207 211 220 232 242 254 265 273 281 283 283 287 292 293 293 295 297 298 297 296 297 297 296 295 294 290 285 284 282 279 275 271 267 263 260 258 256 252 252 251 244 237
208 212 217 217 223 238 253 266 275 280 284 287 289 292 294 296 298 299 299 299 299 298 298 298 297 295 292 288 286 283 280 274 270 269 266 262 259 259 257 254 251 246 241
212 210 210 206 216 234 252 263 269 277 286 288 290 294 297 300 301 302 302 302 299 297 297 297 297 296 292 289 286 284 280 273 269 268 268 264 261 259 256 254 250 246 243
200 200 199 201 208 226 246 256 266 276 286 293 297 299 301 303 303 305 307 306 303 300 299 299 299 297 294 291 289 285 282 277 272 268 267 264 261 258 255 254 249 246 244
195 200 198 197 201 214 231 246 262 275 289 299 300 302 304 306 309 310 312 309 305 303 302 302 301 300 298 295 292 288 285 281 275 270 267 265 263 260 258 255 251 248 247
195 195 193 192 193 206 225 241 262 278 292 301 306 308 310 313 314 315 315 312 309 307 306 306 305 304 303 301 297 293 290 285 280 274 269 265 263 264 262 257 254 251 249
194 194 191 188 196 209 221 239 262 280 294 304 311 314 317 319 319 320 319 318 317 315 314 313 312 310 309 307 305 301 296 291 285 278 272 267 264 263 262 258 255 252 250
187 188 185 185 194 207 219 240 255 278 294 304 312 318 323 325 324 323 323 324 323 322 321 320 318 316 314 311 309 306 302 296 290 284 278 273 268 265 262 259 256 253 251
183 186 187 190 198 209 220 236 249 268 287 302 314 320 323 326 327 330 333 333 330 327 325 325 323 321 318 316 313 310 305 299 294 289 283 277 272 268 265 261 258 257 255
185 189 193 197 204 213 225 234 243 260 278 296 308 316 322 327 331 334 337 339 337 335 332 329 327 325 322 317 313 309 305 300 296 292 288 283 278 272 268 265 262 259 256
186 192 198 200 205 215 223 229 239 251 266 282 299 314 323 327 329 332 336 337 335 333 332 329 326 324 321 318 313 309 304 300 296 292 289 284 280 276 273 270 266 262 259
191 195 200 205 213 219 223 228 236 245 260 280 299 311 318 324 328 330 332 334 332 329 327 327 326 324 322 319 315 311 306 302 298 294 291 286 282 278 275 272 269 265 262
Height
5895 5895 5896 5896 5896 5896 5896 5896 5896 5897 5898 5899 5899 5900 5900 5901 5901 5901 5901 5901 5901 5901 5900 5900 5900 5899 5899 5899 5899 5898 5898 5897 5897 5897 5897 5897 5897 5897 5897 5897 5898 5898 5899
5894 5895 5895 5895 5895 5895 5895 5895 5896 5896 5897 5898 5899 5899 5900 5900 5900 5900 5900 5900 5900 5900 5900 5899 5899 5899 5899 5898 5898 5898 5898 5898 5898 5897 5897 5897 5897 5897 5898 5898 5899 5899 5900
5893 5894 5894 5894 5895 5895 5895 5895 5895 5896 5896 5897 5898 5898 5899 5899 5899 5899 5899 5899 5899 5899 5899 5899 5898 5898 5898 5898 5898 5898 5898 5898 5898 5898 5898 5897 5897 5898 5898 5898 5899 5900 5901
5892 5893 5893 5894 5894 5894 5894 5894 5895 5895 5896 5897 5897 5897 5898 5898 5898 5898 5898 5898 5898 5898 5898 5898 5898 5897 5897 5897 5897 5897 5897 5898 5898 5898 5898 5898 5898 5898 5898 5899 5899 5900 5901
5891 5892 5892 5892 5893 5893 5893 5894 5894 5895 5895 5896 5896 5896 5897 5896 5896 5896 5896 5896 5896 5896 5896 5896 5896 5896 5896 5896 5896 5897 5897 5897 5897 5897 5897 5898 5898 5898 5898 5899 5900 5900 5901
5890 5890 5891 5891 5892 5892 5892 5893 5894 5894 5894 5895 5895 5895 5895 5895 5895 5895 5895 5895 5895 5895 5895 5895 5895 5895 5895 5895 5895 5895 5896 5896 5896 5896 5897 5897 5898 5898 5898 5899 5900 5900 5901
5888 5888 5889 5890 5890 5891 5891 5892 5893 5893 5894 5894 5894 5894 5894 5894 5894 5893 5893 5893 5893 5892 5892 5893 5893 5893 5893 5893 5894 5894 5894 5894 5895 5895 5896 5896 5897 5897 5898 5899 5900 5900 5901
5886 5887 5887 5888 5889 5890 5890 5891 5892 5892 5893 5893 5893 5893 5893 5893 5892 5892 5891 5891 5891 5890 5890 5890 5890 5890 5891 5891 5891 5892 5892 5893 5893 5894 5894 5895 5896 5896 5897 5898 5899 5900 5901
5884 5885 5885 5886 5887 5888 5889 5889 5890 5891 5891 5891 5891 5891 5891 5891 5890 5890 5889 5889 5888 5888 5887 5887 5887 5887 5888 5888 5889 5889 5890 5890 5891 5892 5892 5893 5894 5895 5896 5897 5898 5899 5900
5881 5882 5883 5884 5885 5886 5887 5887 5888 5889 5889 5889 5889 5889 5889 5888 5888 5887 5887 5886 5886 5885 5884 5884 5884 5884 5884 5885 5885 5886 5887 5888 5888 5889 5890 5891 5892 5893 5894 5895 5896 5897 5899
5879 5880 5881 5883 5883 5884 5885 5885 5886 5886 5887 5887 5887 5887 5886 5886 5885 5885 5884 5884 5883 5882 5882 5881 5881 5881 5881 5881 5882 5883 5884 5885 5886 5886 5887 5888 5890 5891 5891 5892 5894 5896 5897
5876 5878 5879 5880 5881 5882 5882 5883 5884 5884 5884 5884 5884 5884 5884 5884 5883 5882 5881 5881 5880 5880 5879 5879 5878 5878 5878 5878 5879 5880 5881 5882 5882 5883 5884 5885 5887 5888 5889 5890 5891 5893 5895
5872 5875 5877 5877 5878 5879 5880 5881 5881 5882 5882 5882 5882 5882 5881 5881 5880 5880 5879 5878 5878 5877 5877 5876 5876 5875 5875 5875 5876 5877 5878 5879 5879 5880 5881 5882 5883 5884 5886 5887 5888 5890 5892
5869 5872 5874 5875 5876 5877 5877 5878 5879 5879 5879 5879 5879 5879 5879 5878 5878 5877 5876 5876 5875 5875 5874 5874 5873 5873 5872 5872 5873 5874 5875 5875 5876 5877 5877 5878 5880 5881 5882 5883 5884 5886 5888
5866 5869 5870 5872 5873 5874 5875 5875 5876 5876 5877 5877 5877 5877 5876 5876 5876 5875 5874 5874 5873 5872 5872 5871 5871 5870 5870 5870 5870 5870 5871 5872 5873 5873 5874 5875 5876 5877 5878 5879 5881 5883 5885
5863 5865 5868 5869 5870 5871 5873 5873 5874 5874 5875 5875 5875 5875 5874 5874 5873 5873 5872 5871 5871 5870 5869 5869 5868 5868 5867 5867 5867 5867 5868 5868 5869 5870 5870 5871 5872 5873 5874 5876 5877 5879 5881
5859 5863 5865 5867 5868 5870 5871 5872 5872 5872 5873 5873 5873 5872 5872 5872 5871 5870 5870 5869 5868 5868 5867 5866 5866 5865 5865 5864 5864 5864 5865 5865 5866 5866 5867 5868 5868 5869 5870 5871 5873 5875 5876
5856 5860 5863 5864 5866 5868 5869 5870 5871 5871 5871 5871 5870 5870 5870 5870 5869 5868 5868 5867 5866 5865 5865 5864 5863 5863 5862 5862 5861 5861 5861 5861 5862 5863 5863 5864 5865 5866 5867 5867 5869 5870 5872
5855 5858 5860 5862 5864 5866 5868 5869 5869 5869 5869 5868 5869 5869 5868 5868 5867 5866 5865 5864 5864 5863 5862 5862 5861 5860 5859 5859 5858 5858 5858 5858 5859 5859 5860 5860 5861 5862 5863 5864 5865 5866 5868
5853 5856 5859 5861 5863 5865 5866 5867 5868 5868 5868 5867 5867 5867 5866 5866 5865 5864 5863 5862 5861 5861 5860 5859 5858 5858 5857 5856 5855 5855 5855 5855 5855 5855 5856 5857 5857 5858 5858 5859 5861 5862 5864
5852 5855 5858 5860 5862 5864 5865 5866 5866 5866 5866 5866 5866 5865 5865 5864 5863 5863 5862 5861 5860 5858 5857 5857 5856 5855 5854 5854 5853 5852 5852 5852 5852 5852 5852 5853 5853 5854 5854 5855 5856 5858 5859
5851 5854 5857 5859 5861 5862 5863 5864 5865 5865 5865 5865 5864 5864 5863 5862 5862 5861 5860 5859 5858 5857 5856 5855 5854 5853 5852 5851 5850 5849 5849 5849 5848 5848 5848 5848 5849 5849 5850 5851 5852 5853 5854
5851 5853 5856 5858 5859 5861 5862 5863 5863 5863 5864 5864 5863 5863 5862 5861 5861 5860 5859 5858 5856 5855 5854 5853 5852 5851 5850 5848 5847 5847 5846 5845 5845 5845 5844 5844 5844 5844 5845 5846 5846 5848 5849
5851 5853 5855 5856 5858 5859 5860 5861 5862 5862 5862 5862 5862 5861 5861 5860 5859 5858 5857 5856 5855 5854 5852 5851 5850 5848 5847 5846 5845 5843 5843 5842 5841 5841 5840 5840 5839 5839 5839 5840 5841 5842 5843
5850 5852 5854 5855 5856 5857 5859 5860 5860 5861 5861 5861 5861 5860 5859 5859 5858 5857 5855 5854 5853 5852 5850 5849 5847 5846 5844 5843 5841 5840 5838 5837 5836 5836 5835 5835 5835 5834 5834 5834 5835 5835 5836
5849 5851 5852 5854 5855 5856 5857 5858 5859 5859 5859 5859 5859 5858 5858 5857 5856 5855 5854 5852 5851 5849 5848 5846 5844 5842 5841 5839 5837 5836 5834 5833 5831 5830 5830 5829 5829 5828 5828 5828 5828 5828 5829